Regional Weather Roundup
Issued by NWS Newport/Morehead, NC

Current Version | Previous Version | Graphics & Text | Print | Product List | Glossary On
Versions: 1 2 3 4 5 6 7 8 9 10 11 12 13 14 15 16 17 18 19 20 21 22 23 24 25 26 27 28 29 30 31 32 33 34 35 36 37 38 39 40 41 42 43 44 45 46 47 48 49 50
000 ASUS42 KMHX 280522 RWRMHX WEATHER ROUNDUP FOR EASTERN NORTH CAROLINA NATIONAL WEATHER SERVICE NEWPORT/MOREHEAD CITY NC 1200 AM EST SUN DEC 28 2014 NOTE: "FAIR" INDICATES FEW OR NO CLOUDS BELOW 12,000 FEET WITH NO SIGNIFICANT WEATHER AND/OR OBSTRUCTIONS TO VISIBILITY NCZ015>017-031-032-045>047-102-103-280600- NORTH COAST CITY SKY/WX TMP DP RH WIND PRES REMARKS EDENTON N/A 47 43 85 S7 30.17F ELIZABETH CITY MOCLDY 51 41 68 S6 30.17F KITTY HAWK PTCLDY 49 43 78 SW3 30.17F MANTEO MOCLDY 48 43 81 S5 30.18F $$ NCZ045>047-081-094-103-104-280600- CENTRAL COAST CITY SKY/WX TMP DP RH WIND PRES REMARKS FRISCO PTCLDY 51 50 96 W5 30.20F SWANQUARTER N/A 50 N/A N/A S5 30.15S $$ NCZ095-097-098-100-101-280600- SOUTHERN COAST CITY SKY/WX TMP DP RH WIND PRES REMARKS BEAUFORT PTCLDY 46 45 96 CALM 30.21F CEDAR ISLAND N/A 52 N/A N/A S5 30.24S JACKSONVILLE MOCLDY 43 42 97 S3 30.20F PINEY ISLAND PTCLDY 51 45 79 S6 30.20F WILMINGTON MOCLDY 46 44 93 CALM 30.21F $$ NCZ011>013-027>030-043-044-078>080-089-090>093-098-280600- COASTAL PLAIN CITY SKY/WX TMP DP RH WIND PRES REMARKS AHOSKIE PTCLDY 44 39 83 CALM 30.18F CLINTON CLOUDY 48 46 92 CALM 30.19F ELIZABETHTOWN MOCLDY 50 43 78 S3 30.20F GOLDSBORO CLOUDY 50 49 97 CALM 30.18F GREENVILLE PTCLDY 50 43 76 SW8 30.19F HAVELOCK MOCLDY 45 42 89 CALM 30.22F KENANSVILLE CLOUDY 46 43 88 CALM 30.20F KINSTON MOCLDY 47 42 82 S3 30.20F NEW BERN MOCLDY 46 42 86 S3 30.21F RICHLANDS MOCLDY 48 45 87 CALM 30.21F ROCKY MOUNT CLOUDY 46 41 82 CALM 30.18F WASHINGTON MOCLDY 49 43 81 SW3 30.19F WHITEVILLE PTCLDY 49 45 83 SW3 30.19F $$ AMZ130-135-150-152-154-156-158-170-250-252-270-ANZ085-086-088-633-658-670-280600- MARINE OBSERVATIONS STATION/POSITION TIME TEMP WIND PRES WAVE SWELL AIR SEA DIR/SP/G HT/PER HT/PER (UTC) (F) (DEG/KT/KT) (MB) (FT/S) (FT/S) CHESAPEAKE LIGHT 0500 49 210/ 15/ 16 1021.1 64 E VA BEACH 0500 53 53 230/ 10/ 12 1021.7 4/14 3/14 DUCK 0500 51 49 210/ 9/ 12 1020.9 2 E DUCK 0500 48 N/A 3/14 3/14 10 NE DUCK 0500 51 N/A 3/15 3/15 OREGON INLET 0500 50 53 170/ 4/ 5 1022.0 13E OREGON INLT 0500 52 N/A 4/14 3/14 HATTERAS CG 0500 55 54 250/ 4/ 4 1022.8 DIAMOND BUOY 0500 66 1023.3 4/15 17 S OCRACOKE NOT AVBL CAPE LOOKOUT 0500 58 190/ 5/ 5 1022.8 BEAUFORT LAB 0500 53 55 290/ 1/ 1 1021.9 30 SE NEW RIVER 0500 61 61 CALM / 4 1023.5 3/15 5 SE WRIGHTSVLE NOT AVBL 225 S CAPE HAT 0428 70 74 140/ 10/ 14 1024.4 5/15 5/15 41 SE CHARLESTON 0500 72 74 220/ 10/ 12 1022.3 2/ 9 2/ 9 $$

USA.gov is the U.S. government's official web portal to all federal, state and local government web resources and services.